Louisville Bowman, KY

4:56 AM EDT on June 29, 2017 (GMT -0400)
Bowman

Weather History for KLOU - January, 1999

Change the Weather History Date:

Wednesday, January 13, 1999

  Actual Average Record
Temperature  
Mean Temperature 44 °F 34 °F  
Max Temperature 55 °F 42 °F 70 °F (1960)
Min Temperature 32 °F 26 °F -1 °F (1977)
Degree Days  
Heating Degree Days 21 31  
Month to date heating degree days 397  
Since 1 July heating degree days 2061  
Cooling Degree Days 0 0  
Month to date cooling degree days 0  
Year to date cooling degree days 0  
Moisture  
Dew Point 44 °F    
Average Humidity 88    
Maximum Humidity 100    
Minimum Humidity 72    
Precipitation  
Precipitation 0.00 in 0.12 in 2.48 in (2013)
Month to date precipitation 1.58  
Year to date precipitation 1.58  
Sea Level Pressure  
Sea Level Pressure 30.00 in    
Wind  
Wind Speed 10 mph (SW)    
Max Wind Speed 15 mph    
Max Gust Speed -    
Visibility 6 miles    
Events Rain    
T = Trace of Precipitation, MM = Missing Value Source: NWS Daily Summary

Daily Weather History Graph

Daily Weather History Graph

Search for Another Location

Airport or City:

Trip Planner

Search our weather history database for the weather conditions in past years. The results will help you decide how hot, cold, wet, or windy it might be!

Date:

Astronomy

Jan. 13, 1999 Rise Set
Actual Time 7:58 AM EST 5:44 PM EST
Civil Twilight 7:29 AM EST 6:13 PM EST
Nautical Twilight 6:57 AM EST 6:45 PM EST
Astronomical Twilight 6:25 AM EST 7:17 PM EST
Moon 4:16 AM EST (1/13) 2:48 PM EST (1/13)
Length of Visible Light 10h 43m
Length of Day
9h 45m
Waning Crescent, 15% of the Moon is Illuminated
Jan 13
Waning Crescent
Jan 17
New
Jan 24
First Quarter
Jan 31
Full
Feb 8
Last Quarter

Hourly Weather History & Observations

Time (EST) Temp. Windchill Dew Point Humidity Pressure Visibility Wind Dir Wind Speed Gust Speed Precip Events Conditions
12:50 AM 53.6 °F - 44.6 °F 72% - 10.0 mi South 11.5 mph - N/A   Overcast
1:50 AM 53.6 °F - 44.6 °F 72% 29.91 in 10.0 mi South 12.7 mph - N/A   Overcast
2:50 AM 53.6 °F - 44.6 °F 72% 29.92 in 10.0 mi SSW 10.4 mph - N/A   Overcast
3:50 AM 51.8 °F - 44.6 °F 76% 29.92 in 7.0 mi South 8.1 mph - N/A   Overcast
4:50 AM 51.8 °F - 44.6 °F 76% 29.92 in 7.0 mi South 5.8 mph - N/A   Overcast
5:58 AM 55.4 °F - 48.2 °F 77% 29.92 in 7.0 mi South 6.9 mph - N/A Rain Light Rain
6:53 AM 53.6 °F - 46.4 °F 77% 29.92 in 15.0 mi South 15.0 mph - N/A   Overcast
7:49 AM 55.4 °F - 46.4 °F 72% 29.94 in 15.0 mi South 15.0 mph - N/A   Overcast
8:50 AM 55.4 °F - 50.0 °F 82% 29.95 in 7.0 mi South 11.5 mph - N/A   Overcast
9:57 AM 55.4 °F - 50.0 °F 82% 29.96 in 7.0 mi SSW 12.7 mph - N/A   Overcast
10:58 AM 53.6 °F - 51.8 °F 94% 29.99 in 4.0 mi WSW 8.1 mph - N/A Rain Light Rain
11:10 AM 53.6 °F - 51.8 °F 94% 30.00 in 2.0 mi WSW 8.1 mph - N/A Rain Light Rain
11:45 AM 53.6 °F - - N/A% 30.03 in 0.6 mi WNW 3.5 mph - N/A   Overcast
11:55 AM 51.8 °F - 50.0 °F 94% 30.00 in 6.0 mi WSW 5.8 mph - N/A Rain Light Rain
12:47 PM 51.8 °F - 51.8 °F 100% 29.98 in 6.0 mi SSW 3.5 mph - N/A Rain Light Rain
1:52 PM 53.6 °F - 53.6 °F 100% 29.98 in 2.5 mi Calm Calm - N/A Rain Light Rain
2:45 PM 41.0 °F 34.3 °F 41.0 °F 100% 29.99 in 1.0 mi North 11.5 mph - N/A   Overcast
3:49 PM 39.2 °F 33.0 °F 39.2 °F 100% 30.02 in 1.0 mi NNW 9.2 mph - N/A Rain Light Rain
5:52 PM 37.4 °F 30.8 °F 35.6 °F 93% 30.06 in 4.0 mi North 9.2 mph - N/A Rain Light Rain
6:54 PM 35.6 °F 29.9 °F 35.6 °F 100% 30.09 in 4.0 mi NE 6.9 mph - N/A Rain Light Rain
7:53 PM 33.8 °F 27.0 °F 33.8 °F 100% 30.11 in 6.0 mi NNE 8.1 mph - N/A Rain Light Rain
8:50 PM 33.8 °F 27.0 °F 33.8 °F 100% 30.11 in 7.0 mi NNE 8.1 mph - N/A Rain Light Rain
9:52 PM 33.8 °F 26.4 °F 33.8 °F 100% 30.11 in 7.0 mi NNE 9.2 mph - N/A Rain Light Rain
11:50 PM 32.0 °F 25.6 °F 32.0 °F 100% 30.13 in 7.0 mi NNE 6.9 mph - N/A Rain Light Rain